Location: Beekmeers
(50.8953°N, 3.6968°E)
Time: 16:55:12
(UTC+00:00)

H-2A R/B - Pass Details

Date: 11 August 2024
Orbit: 566 x 633 km, 98.4° (Epoch: 06 September)

Event Time Altitude Azimuth Distance (km) Brightness Sun altitude
Rises 00:01:43 0° 17° (NNE) 2,841 6.8 -23.9°
Reaches altitude 10° 00:03:54 10° 20° (NNE) 1,946 5.6 -23.9°
Enters shadow 00:08:00 65° 94° (E) 672 2.1 -23.8°
